Regional Weather Roundup
Issued by NWS Sioux Falls, SD

Home | Current Version | Previous Version | Text Only | Print | Product List | Glossary On
Versions: 1 2 3 4 5 6 7 8 9 10 11 12 13 14 15 16 17 18 19 20 21 22 23 24 25 26 27 28 29 30 31 32 33 34 35 36 37 38 39 40 41 42 43 44 45 46 47 48 49 50
000
ASUS43 KFSD 030402
RWRFSD

WEATHER ROUNDUP FOR SE SOUTH DAKOTA/SW MINNESOTA/NW IOWA
NATIONAL WEATHER SERVICE SIOUX FALLS SD
1000 PM CST FRI DEC 02 2016

NOTE: "FAIR" INDICATES FEW OR NO CLOUDS BELOW 12,000 FEET WITH NO
SIGNIFICANT WEATHER AND OR OBSTRUCTIONS TO VISIBILITY.


SDZ038>040-050-052>070-030500-
SOUTHEAST SOUTH DAKOTA

CITY           SKY/WX    TMP DP  RH WIND       PRES   REMARKS
CHAMBERLAIN    NOT AVBL
HURON          CLOUDY    29  26  89 SE5       30.30S WCI  24
MADISON        CLOUDY    27  27 100 NW5       30.28F WCI  21
MITCHELL       CLOUDY    31  27  85 NE3       30.31S
SIOUX FALLS    CLOUDY    30  24  78 CALM      30.30S
WINNER         FAIR      24  20  84 S5        30.24F WCI  18
YANKTON        CLEAR     30  27  86 CALM      30.30S
$$

MNZ071-072-080-081-089-090-097-098-030500-
SOUTHWEST MINNESOTA

CITY           SKY/WX    TMP DP  RH WIND       PRES   REMARKS
JACKSON        CLOUDY    28  19  69 NW7       30.30S WCI  21
LUVERNE        CLOUDY    30  23  74 W5        30.31S WCI  25
MARSHALL       NOT AVBL
MONTEVIDEO     CLOUDY    27  25  93 CALM      30.32S
PIPESTONE      CLOUDY    27  21  80 CALM      30.28S
REDWOOD FALLS  CLOUDY    29  20  69 NW6       30.31S WCI  23
TRACY          CLOUDY    29  24  81 NW8       30.30S WCI  21
WINDOM         CLOUDY    28  21  74 CALM      30.29F
$$

IAZ001>003-012>014-020>022-031-032-NEZ013-014-SDZ071-030500-
NORTHWEST IOWA

CITY           SKY/WX    TMP DP  RH WIND       PRES   REMARKS
CHEROKEE       CLOUDY    33  32  96 CALM      30.32S
DENISON        CLOUDY    34  32  93 CALM      30.30S
ESTHERVILLE    CLOUDY    29  24  82 NW9       30.30S WCI  20
LE MARS        CLOUDY    34  28  80 CALM      30.33S
ORANGE CITY    CLOUDY    32  28  86 CALM      30.30S
SHELDON        CLOUDY    30  28  93 CALM      30.30R
SIOUX CITY     PTCLDY    32  28  85 E3        30.32F
SPENCER        CLOUDY    31  25  78 NW10      30.31S WCI  22
STORM LAKE     CLOUDY    32  30  93 NW5       30.31S WCI  27
$$

ABBREVIATIONS USED IN REMARKS
   TC - TEMPERATURE IN CELSIUS
  WCI - WIND CHILL INDEX
   HX - HEAT INDEX
  VSB - VISIBILITY





USA.gov is the U.S. government's official web portal to all federal, state and local government web resources and services.